TimeCST,TemperatureF,Dew PointF,Humidity,Sea Level PressureIn,VisibilityMPH,Wind Direction,Wind SpeedMPH,Gust SpeedMPH,PrecipitationIn,Events,Conditions,WindDirDegrees,DateUTC
12:15 AM,7.5,-0.4,70,30.38,10.0,NNW,8.1,-,N/A,,Clear,340,2013-02-20 06:15:00
12:35 AM,6.8,-0.6,72,30.39,10.0,North,8.1,-,N/A,,Clear,350,2013-02-20 06:35:00
12:55 AM,6.1,-0.6,74,30.40,10.0,NW,9.2,-,N/A,,Clear,320,2013-02-20 06:55:00
1:15 AM,5.7,-2.0,70,30.39,10.0,North,8.1,-,N/A,,Clear,350,2013-02-20 07:15:00
1:35 AM,5.0,-2.4,72,30.39,10.0,North,6.9,-,N/A,,Clear,350,2013-02-20 07:35:00
1:55 AM,5.0,-2.2,72,30.39,10.0,North,8.1,-,N/A,,Clear,350,2013-02-20 07:55:00
2:15 AM,4.6,-2.6,72,30.40,10.0,NNW,8.1,-,N/A,,Clear,340,2013-02-20 08:15:00
2:35 AM,4.5,-2.4,73,30.40,10.0,NNW,6.9,-,N/A,,Clear,340,2013-02-20 08:35:00
3:15 AM,3.9,-2.9,73,30.40,10.0,NNW,6.9,-,N/A,,Clear,340,2013-02-20 09:15:00
3:35 AM,3.7,-3.3,73,30.39,10.0,NNW,5.8,-,N/A,,Clear,340,2013-02-20 09:35:00
3:55 AM,3.6,-3.5,73,30.39,10.0,NNW,8.1,-,N/A,,Clear,340,2013-02-20 09:55:00
4:15 AM,3.0,-3.6,74,30.39,10.0,NNW,4.6,-,N/A,,Clear,330,2013-02-20 10:15:00
4:35 AM,3.2,-3.5,74,30.37,10.0,North,8.1,-,N/A,,Clear,360,2013-02-20 10:35:00
4:55 AM,3.0,-4.0,73,30.37,10.0,North,9.2,-,N/A,,Clear,360,2013-02-20 10:55:00
5:15 AM,2.8,-4.2,73,30.38,10.0,North,8.1,-,N/A,,Clear,360,2013-02-20 11:15:00
5:35 AM,2.7,-4.2,73,30.38,10.0,North,4.6,-,N/A,,Clear,10,2013-02-20 11:35:00
6:15 AM,2.1,-4.5,74,30.39,10.0,Calm,Calm,-,N/A,,Clear,0,2013-02-20 12:15:00
6:35 AM,1.4,-4.9,75,30.39,10.0,NNW,4.6,-,N/A,,Clear,330,2013-02-20 12:35:00
6:55 AM,1.4,-4.5,76,30.41,10.0,WNW,3.5,-,N/A,,Clear,290,2013-02-20 12:55:00
7:15 AM,1.4,-4.2,77,30.41,10.0,NW,4.6,-,N/A,,Clear,320,2013-02-20 13:15:00
7:35 AM,3.0,-3.8,73,30.42,10.0,West,4.6,-,N/A,,Clear,280,2013-02-20 13:35:00
7:55 AM,4.1,-3.3,71,30.42,10.0,NW,6.9,-,N/A,,Clear,320,2013-02-20 13:55:00
8:15 AM,5.2,-3.5,68,30.43,10.0,North,5.8,-,N/A,,Clear,350,2013-02-20 14:15:00
8:35 AM,5.9,-2.9,67,30.43,10.0,NNW,4.6,-,N/A,,Clear,340,2013-02-20 14:35:00
9:15 AM,8.6,-1.5,64,30.44,10.0,NNW,4.6,-,N/A,,Clear,330,2013-02-20 15:15:00
9:35 AM,9.0,-0.9,64,30.44,10.0,North,4.6,-,N/A,,Clear,350,2013-02-20 15:35:00
9:55 AM,10.0,-0.8,62,30.43,10.0,North,5.8,-,N/A,,Clear,10,2013-02-20 15:55:00
10:15 AM,12.2,0.1,59,30.44,10.0,Calm,Calm,-,N/A,,Clear,0,2013-02-20 16:15:00
10:35 AM,14.0,0.9,56,30.42,10.0,NE,6.9,-,N/A,,Clear,40,2013-02-20 16:35:00
10:55 AM,15.6,0.3,51,30.44,10.0,ENE,3.5,-,N/A,,Clear,60,2013-02-20 16:55:00
11:15 AM,16.9,0.1,48,30.45,10.0,Calm,Calm,-,N/A,,Clear,0,2013-02-20 17:15:00
11:35 AM,17.6,0.9,48,30.46,10.0,Calm,Calm,-,N/A,,Clear,0,2013-02-20 17:35:00
11:55 AM,18.3,1.2,47,30.44,10.0,North,4.6,-,N/A,,Clear,360,2013-02-20 17:55:00
12:15 PM,20.1,2.1,46,30.43,10.0,Calm,Calm,-,N/A,,Clear,0,2013-02-20 18:15:00
12:35 PM,20.1,1.8,45,30.41,10.0,Calm,Calm,-,N/A,,Clear,0,2013-02-20 18:35:00
12:55 PM,21.0,1.8,43,30.39,10.0,Calm,Calm,-,N/A,,Clear,0,2013-02-20 18:55:00
1:15 PM,22.1,2.7,43,30.38,10.0,Calm,Calm,-,N/A,,Clear,0,2013-02-20 19:15:00
1:35 PM,22.8,3.2,43,30.36,10.0,NNE,4.6,-,N/A,,Clear,30,2013-02-20 19:35:00
1:55 PM,23.7,3.0,41,30.36,10.0,Calm,Calm,-,N/A,,Clear,0,2013-02-20 19:55:00
2:15 PM,23.7,3.4,42,30.35,10.0,Calm,Calm,-,N/A,,Clear,0,2013-02-20 20:15:00
2:55 PM,23.9,3.2,41,30.35,10.0,Calm,Calm,-,N/A,,Clear,0,2013-02-20 20:55:00
3:15 PM,24.8,3.6,40,30.35,10.0,Calm,Calm,-,N/A,,Clear,0,2013-02-20 21:15:00
3:35 PM,24.6,3.7,41,30.35,10.0,Calm,Calm,-,N/A,,Clear,0,2013-02-20 21:35:00
3:55 PM,24.8,4.1,41,30.35,10.0,NNE,3.5,-,N/A,,Clear,20,2013-02-20 21:55:00
4:15 PM,24.6,3.9,41,30.34,10.0,East,3.5,-,N/A,,Clear,90,2013-02-20 22:15:00
4:35 PM,24.4,4.3,42,30.34,10.0,Calm,Calm,-,N/A,,Clear,0,2013-02-20 22:35:00
4:55 PM,24.4,4.5,42,30.33,10.0,Calm,Calm,-,N/A,,Clear,0,2013-02-20 22:55:00
5:15 PM,24.3,4.3,42,30.33,10.0,Calm,Calm,-,N/A,,Clear,0,2013-02-20 23:15:00
5:35 PM,23.9,5.0,44,30.32,10.0,ENE,3.5,-,N/A,,Clear,70,2013-02-20 23:35:00
5:55 PM,23.7,5.0,45,30.32,10.0,East,3.5,-,N/A,,Clear,90,2013-02-20 23:55:00
6:15 PM,23.4,5.4,46,30.31,10.0,Calm,Calm,-,N/A,,Clear,0,2013-02-21 00:15:00
6:35 PM,23.4,5.9,47,30.31,10.0,ENE,3.5,-,N/A,,Clear,60,2013-02-21 00:35:00
6:55 PM,23.4,6.8,49,30.31,10.0,Calm,Calm,-,N/A,,Clear,0,2013-02-21 00:55:00
7:15 PM,23.5,6.6,49,30.31,10.0,ENE,4.6,-,N/A,,Clear,70,2013-02-21 01:15:00
7:35 PM,23.5,7.0,49,30.31,10.0,ENE,3.5,-,N/A,,Clear,60,2013-02-21 01:35:00
7:55 PM,23.4,7.3,50,30.31,10.0,East,3.5,-,N/A,,Clear,90,2013-02-21 01:55:00
8:15 PM,23.0,7.7,52,30.31,10.0,ENE,6.9,-,N/A,,Clear,70,2013-02-21 02:15:00
8:35 PM,23.0,8.6,54,30.32,10.0,ENE,4.6,-,N/A,,Clear,70,2013-02-21 02:35:00
9:15 PM,23.0,9.3,56,30.32,10.0,East,3.5,-,N/A,,Clear,80,2013-02-21 03:15:00
9:35 PM,23.0,9.5,56,30.32,10.0,ENE,4.6,-,N/A,,Clear,70,2013-02-21 03:35:00
9:55 PM,23.0,9.9,57,30.32,10.0,East,5.8,-,N/A,,Clear,80,2013-02-21 03:55:00
10:15 PM,23.0,9.7,57,30.32,10.0,East,5.8,-,N/A,,Clear,90,2013-02-21 04:15:00
10:35 PM,22.1,10.4,61,30.32,10.0,East,4.6,-,N/A,,Clear,90,2013-02-21 04:35:00
10:55 PM,21.9,10.4,61,30.33,10.0,East,3.5,-,N/A,,Clear,80,2013-02-21 04:55:00
11:15 PM,21.2,10.4,63,30.32,10.0,ENE,4.6,-,N/A,,Clear,70,2013-02-21 05:15:00
11:35 PM,21.2,10.4,63,30.32,10.0,East,3.5,-,N/A,,Clear,80,2013-02-21 05:35:00
11:55 PM,20.8,10.8,65,30.32,10.0,East,3.5,-,N/A,,Clear,80,2013-02-21 05:55:00